This is the latest recevied weather packets stored in our database for station/object K5GHS-1. If no packets are shown the sender has not sent any weather packets the latest 10 day(s).
| Time | Temp. | Humidity | Pressure | Rain* | Wind** | Luminosity | Snow |
|---|---|---|---|---|---|---|---|
| 1788014584 | 32.22° C | 57% | 1016.6 hPa | 0 mm | - | 271 W/m² | - |
| 1788014280 | 31.67° C | 59% | 1016.8 hPa | 0 mm | - | 264 W/m² | - |
| 1788013975 | 31.11° C | 60% | 1016.7 hPa | 0 mm | - | 261 W/m² | - |
| 1788013669 | 31.11° C | 60% | 1016.8 hPa | 0 mm | - | 241 W/m² | - |
| 1788013364 | 31.11° C | 61% | 1016.6 hPa | 0 mm | - | 215 W/m² | - |
| 1788013063 | 30.56° C | 62% | 1016.9 hPa | 0 mm | - | 190 W/m² | - |
| 1788012762 | 30.56° C | 63% | 1016.6 hPa | 0 mm | - | 189 W/m² | - |
| 1788012458 | 30.56° C | 63% | 1016.8 hPa | 0 mm | - | 190 W/m² | - |
| 1788012157 | 30° C | 64% | 1016.8 hPa | 0 mm | - | 192 W/m² | - |
| 1788011857 | 29.44° C | 65% | 1016.6 hPa | 0 mm | - | 160 W/m² | - |
| 1788011555 | 28.89° C | 66% | 1016.7 hPa | 0 mm | - | 141 W/m² | - |
| 1788011251 | 29.44° C | 66% | 1016.7 hPa | 0 mm | - | 141 W/m² | - |
| 1788010950 | 28.33° C | 68% | 1016.7 hPa | 0 mm | - | 129 W/m² | - |
| 1788010645 | 28.33° C | 69% | 1016.8 hPa | 0 mm | - | 125 W/m² | - |
| 1788010344 | 27.78° C | 71% | 1016.5 hPa | 0 mm | - | 107 W/m² | - |
| 1788010044 | 27.22° C | 72% | 1016.7 hPa | 0 mm | - | 98 W/m² | - |
| 1788009739 | 27.22° C | 72% | 1016.7 hPa | 0 mm | - | 41 W/m² | - |
| 1788009436 | 26.67° C | 73% | 1016.6 hPa | 0 mm | - | 39 W/m² | - |
| 1788009143 | 26.67° C | 73% | 1016.6 hPa | 0 mm | - | 37 W/m² | - |
| 1788008827 | 26.67° C | 73% | 1016.6 hPa | 0 mm | - | 35 W/m² | - |
| 1788008521 | 26.67° C | 74% | 1016.7 hPa | 0 mm | - | 33 W/m² | - |
| 1788008218 | 26.11° C | 74% | 1016.8 hPa | 0 mm | - | 30 W/m² | - |
| 1788007916 | 26.11° C | 74% | 1016.5 hPa | 0 mm | - | 26 W/m² | - |
| 1788007615 | 26.11° C | 74% | 1016.5 hPa | 0 mm | - | 23 W/m² | - |
| 1788007310 | 26.11° C | 74% | 1016.4 hPa | 0 mm | - | 19 W/m² | - |
* Rain latest hour (hover to see other rain measurements)
** Current wind speed in m/s (hover to see current wind gust speed)